RH
57 58 58 58 56 56 56 56 59 59 54 47 45 44 39 37 36 37 38 36 33 33 32 30 33 35 34 37 41 41 41 40 40 42 43 42 40 43 45 41 40 41 43 46 48 50 50 49 49 48 49 48 48 49 50 50 50 52 53 55 55 54 53 53 53 53 54 55 53 51 49 48 47 47 48 49 49 48 49 49 49 49 48 48 48 49 50 50 49 50 48 47 45 43 42 41 42
56 58 57 57 55 55 54 53 57 55 49 49 48 47 44 40 37 35 34 33 33 36 33 28 26 28 30 31 35 36 39 40 38 38 42 41 39 42 42 40 38 39 41 43 45 49 50 51 50 49 49 48 48 48 48 49 49 50 51 52 53 54 53 54 54 54 55 54 52 50 48 47 48 49 49 50 50 50 50 49 48 48 48 48 48 49 50 50 50 50 49 48 47 46 44 42 43
57 58 56 55 53 51 52 52 54 49 46 49 49 47 44 40 38 35 32 31 31 32 31 28 25 25 27 28 33 36 37 38 35 35 41 40 37 40 39 37 36 37 40 40 42 46 48 49 50 50 49 48 47 48 48 48 48 49 50 50 50 52 53 53 53 55 55 54 53 50 48 48 49 50 51 51 51 51 51 51 49 48 48 48 48 48 49 50 51 51 51 51 50 49 47 45 45
57 58 56 54 53 51 51 51 50 46 43 48 47 47 46 41 40 38 35 33 32 29 27 27 26 26 26 30 32 33 34 35 36 33 35 36 34 37 35 34 35 35 37 37 38 41 43 44 45 46 45 46 46 47 47 47 47 48 50 50 49 50 50 51 52 53 54 54 53 52 50 49 50 51 52 53 53 53 53 53 52 51 50 48 47 47 47 48 49 50 50 51 51 49 47 47 47
56 57 56 53 53 49 51 52 50 44 37 41 43 44 45 40 38 41 41 37 34 31 29 28 29 30 28 31 32 32 33 33 36 33 32 33 32 35 32 30 32 32 34 34 35 38 40 40 40 40 41 43 43 43 44 44 45 45 47 49 49 48 48 48 49 51 52 52 52 51 50 50 50 51 52 54 54 55 55 55 54 53 53 51 49 47 47 46 47 48 48 49 49 49 47 46 46
54 54 54 51 50 45 50 52 51 45 34 35 36 37 40 37 37 40 41 38 35 34 32 31 32 33 30 33 34 34 35 33 36 34 31 31 31 34 31 28 29 29 31 33 34 36 39 39 37 36 37 39 38 38 39 40 42 42 43 44 45 46 47 47 47 49 49 50 49 50 50 50 51 51 53 53 55 56 57 58 57 57 55 54 52 51 49 48 47 47 47 48 48 48 47 46 46
51 50 50 49 47 45 50 49 48 45 34 32 31 33 35 34 36 37 38 36 35 36 34 34 33 33 32 34 35 33 36 36 36 34 31 29 31 35 31 28 27 27 30 32 33 35 38 39 37 35 35 36 35 35 35 37 38 40 40 41 43 44 45 46 47 47 48 49 48 49 49 49 50 51 52 53 55 57 58 59 59 59 58 57 56 55 54 52 49 48 48 48 49 49 49 49 49
47 47 46 46 47 45 48 44 41 39 33 33 31 33 35 32 32 35 39 36 34 36 37 35 35 34 31 32 34 34 37 36 35 34 32 31 32 35 32 28 27 26 28 30 31 34 38 39 38 36 34 34 33 34 34 35 36 38 39 41 42 42 44 45 47 47 48 49 48 48 49 50 50 50 51 52 54 55 57 57 58 58 57 57 57 57 56 55 53 51 50 49 50 50 51 52 52
44 44 43 43 45 43 43 40 36 33 32 35 33 35 37 33 31 33 38 37 34 36 38 37 35 35 34 34 34 35 40 38 36 36 35 34 34 34 31 30 29 28 27 29 31 33 37 38 38 37 36 35 35 35 35 37 37 37 39 40 41 43 44 44 46 47 48 49 49 49 49 51 51 50 50 50 52 53 55 55 56 55 55 56 55 56 55 55 54 53 51 50 50 50 52 53 54
41 42 41 42 45 42 39 35 34 32 30 34 34 34 35 34 32 32 36 37 34 35 38 38 37 37 38 39 37 37 41 41 40 41 39 39 37 35 32 31 32 30 29 30 32 34 37 38 37 37 37 37 38 37 38 39 39 39 40 40 42 43 44 43 44 46 48 48 49 50 49 50 51 52 51 51 51 51 52 53 55 55 55 54 54 54 54 54 53 52 51 50 49 49 50 53 55
39 38 37 39 43 41 37 35 33 32 29 32 34 33 34 35 33 30 35 36 34 36 38 40 40 39 39 41 42 40 40 43 44 44 43 42 41 39 36 35 36 34 32 32 35 37 38 39 37 37 37 38 40 40 41 42 41 42 42 41 42 43 43 43 43 44 45 46 47 49 49 50 52 53 53 53 52 50 50 51 52 54 55 54 54 54 54 55 54 53 52 51 49 49 48 50 54
39 39 38 37 40 38 36 34 33 31 28 30 32 32 34 35 34 30 33 37 38 38 38 41 41 41 43 43 44 41 41 42 43 45 47 46 46 43 40 39 40 38 36 35 37 39 40 41 40 40 39 41 42 43 46 46 46 45 43 42 42 44 45 43 42 43 43 45 46 47 48 49 51 52 53 53 53 52 51 50 50 52 54 55 54 54 54 55 54 54 53 51 50 49 49 49 52
39 40 41 38 38 38 36 34 31 31 29 29 30 31 33 34 33 31 33 36 40 41 40 43 43 43 44 41 43 40 41 43 42 46 48 49 49 46 44 44 44 41 40 38 38 39 40 42 43 42 41 43 43 45 49 48 49 48 45 45 45 46 46 44 44 45 43 44 45 45 46 48 49 50 51 52 52 52 52 51 50 50 52 53 54 54 55 55 55 55 54 53 51 50 50 50 51
39 39 42 40 39 37 34 33 29 30 30 29 30 30 31 33 33 33 33 33 38 41 41 44 44 46 46 42 42 40 42 45 44 46 46 49 49 46 47 48 47 44 42 41 39 39 40 41 43 42 42 43 42 46 50 49 50 51 48 47 48 48 48 47 47 48 46 45 46 47 48 48 48 49 50 51 51 51 51 50 50 49 50 52 54 56 57 57 57 58 58 57 55 53 52 52 53
39 36 39 40 39 37 34 32 29 29 30 30 31 31 33 36 36 37 36 34 37 39 40 43 42 46 49 44 42 40 41 42 44 46 46 49 47 44 46 47 48 46 45 45 43 42 42 43 42 42 43 42 43 48 51 50 50 51 50 49 48 50 50 49 49 49 50 50 53 54 54 54 52 52 52 51 52 51 51 50 51 50 51 50 52 55 57 58 60 60 60 58 57 55 53 54 56
38 34 35 36 34 34 34 31 27 29 31 31 31 31 34 38 38 39 39 37 38 38 39 41 40 43 47 43 42 42 40 39 42 45 47 49 46 43 42 43 45 46 46 47 47 46 46 46 44 43 42 41 47 50 47 50 54 51 50 49 49 49 49 49 49 49 50 52 54 55 57 58 57 56 55 54 53 53 52 51 51 52 52 52 52 54 55 58 60 60 59 58 57 55 54 55 58
32 31 31 30 28 28 31 29 26 28 31 32 31 30 34 39 39 39 40 40 41 41 42 42 41 42 44 42 41 42 43 41 41 44 46 47 45 44 43 40 42 45 44 45 46 47 48 47 44 43 44 42 46 50 45 48 57 54 47 45 47 47 47 50 50 49 49 51 52 54 56 57 58 58 57 57 55 55 55 54 53 54 54 54 54 55 56 57 58 58 57 59 59 56 55 56 58
28 27 26 26 25 23 25 27 26 27 29 30 31 30 30 34 37 38 40 43 41 42 44 43 41 41 43 42 41 43 45 43 41 42 44 44 44 45 46 43 43 45 45 45 45 45 45 44 42 41 42 41 42 47 47 48 53 55 48 43 45 45 46 50 51 51 51 52 52 53 55 56 56 56 57 57 55 54 55 55 56 58 58 57 57 58 57 57 57 55 55 58 58 56 56 56 58
28 27 24 25 23 20 22 25 25 28 30 29 28 28 28 31 34 36 40 43 41 41 43 42 40 42 43 42 40 44 45 43 41 41 43 43 42 44 47 47 46 46 47 48 48 46 43 42 41 40 39 38 38 42 46 47 49 51 48 45 46 47 47 49 51 52 53 53 54 55 54 54 55 55 56 57 56 54 55 56 57 60 62 61 60 59 57 57 57 55 54 55 57 56 55 55 56
26 24 24 23 19 18 20 22 23 26 29 29 28 26 27 32 35 36 38 40 38 38 39 37 39 41 42 40 39 43 44 42 41 42 44 44 43 43 46 49 48 46 47 49 49 49 45 43 41 41 39 37 36 39 42 44 45 45 46 47 48 48 49 50 51 53 54 54 55 55 54 54 54 54 56 58 56 55 56 58 58 61 64 63 62 60 57 57 56 55 55 55 57 56 53 52 54
23 20 21 19 15 15 17 19 22 23 23 25 28 29 32 34 33 33 33 35 34 33 31 29 33 37 37 38 38 41 43 41 41 42 44 44 44 44 45 49 49 46 44 46 48 48 47 46 43 41 41 39 38 40 41 42 43 44 46 46 48 50 51 51 51 52 53 54 53 54 55 55 54 55 55 56 56 55 57 60 60 61 62 63 62 61 60 57 55 55 55 55 55 54 52 52 53
19 17 15 15 14 14 16 19 21 21 20 21 26 32 37 36 30 27 27 28 29 27 25 24 28 31 31 35 37 39 40 40 40 41 43 45 45 46 46 48 50 48 45 45 46 45 45 47 45 43 43 43 41 42 42 44 45 45 45 45 47 49 51 52 52 51 52 51 52 53 54 54 55 56 55 55 55 55 57 60 61 60 60 61 61 60 60 59 58 57 54 53 53 52 52 53 55
17 14 12 13 15 15 17 19 20 20 21 22 24 28 33 33 28 27 26 24 23 23 23 23 25 29 30 33 36 36 36 38 39 40 42 43 44 47 49 49 49 50 47 46 45 43 44 46 45 44 45 44 43 44 43 46 49 48 46 46 47 50 51 52 51 52 53 52 52 54 55 54 54 55 55 55 57 56 57 58 60 59 58 58 58 58 59 60 61 61 58 55 54 53 53 54 57
13 12 10 12 14 15 18 20 21 22 23 23 22 25 27 27 28 29 28 23 22 24 23 24 26 30 32 33 34 37 39 39 38 37 40 42 42 44 47 49 48 48 48 46 44 43 43 44 45 45 46 44 43 44 45 47 51 52 51 49 49 50 49 49 50 52 54 54 54 55 55 54 54 54 54 56 57 59 59 58 59 58 58 58 58 57 58 60 61 63 62 60 58 57 56 56 58
10 11 10 11 12 14 19 22 23 22 23 24 24 27 25 25 30 32 31 26 24 25 23 25 28 31 32 34 35 36 39 40 38 36 37 40 42 43 46 47 46 45 45 45 43 41 41 43 44 45 46 44 43 44 46 50 54 54 53 53 50 48 48 48 49 49 52 53 54 56 56 54 53 52 53 55 57 59 60 61 61 59 59 61 59 57 57 60 61 62 64 64 63 62 61 59 60
9 11 10 11 13 16 21 23 23 23 27 28 27 29 27 26 33 35 34 31 27 28 27 27 31 33 34 34 36 38 39 39 40 38 36 39 42 42 45 46 45 45 42 43 43 41 39 40 41 44 45 44 43 43 43 49 56 55 54 56 53 50 50 51 50 48 49 51 54 56 57 56 53 50 50 52 54 57 60 62 63 61 61 62 60 58 58 60 62 62 64 66 67 68 66 64 63
10 11 11 12 15 18 22 23 23 26 28 29 29 32 31 31 34 36 37 35 31 30 30 30 31 32 32 33 36 38 40 42 43 42 38 39 41 42 44 44 44 44 43 42 44 42 40 40 40 41 43 43 42 41 42 49 54 54 53 54 52 49 49 51 49 48 48 50 54 54 54 55 53 49 48 49 50 52 57 60 63 62 62 61 60 60 59 60 62 63 65 67 71 73 73 71 69
12 13 12 14 19 21 23 25 25 27 28 29 28 30 32 32 35 38 38 36 34 30 29 30 30 30 30 32 34 34 39 45 46 47 43 37 38 40 43 44 43 44 44 42 45 47 43 41 42 42 43 44 42 42 48 51 52 53 53 52 51 50 50 51 49 49 49 49 50 51 50 50 49 47 48 49 47 47 51 56 60 62 62 62 61 60 62 62 62 63 65 66 69 73 76 76 74
17 18 17 18 23 24 25 27 27 26 28 29 27 30 35 34 36 38 36 34 35 33 29 29 29 31 33 33 34 33 36 43 46 48 45 38 35 37 41 46 46 46 47 45 46 49 46 42 44 45 45 46 44 46 50 48 46 48 49 48 50 52 54 54 51 49 50 49 47 49 49 48 47 47 48 49 48 46 45 50 55 59 61 63 63 62 63 63 62 62 64 65 66 69 71 73 73
18 21 22 23 25 26 27 28 30 28 29 28 26 35 42 38 37 36 34 32 33 34 32 31 31 34 38 36 34 34 33 36 41 44 44 39 34 34 40 44 48 49 51 52 49 45 40 39 41 44 47 50 50 51 50 43 40 44 45 44 46 50 51 52 51 49 50 49 46 48 49 46 46 48 50 49 47 45 44 46 50 54 57 61 64 63 61 62 62 61 62 64 65 66 67 69 70
19 20 22 25 27 28 27 29 32 31 31 29 26 37 45 40 37 35 33 31 30 32 30 29 32 36 40 37 34 33 34 35 37 39 39 37 34 36 41 46 51 50 47 47 45 42 39 38 40 43 46 50 51 51 47 41 40 43 44 45 45 46 49 52 52 50 48 45 44 49 50 48 46 48 52 52 48 46 47 48 48 49 54 59 62 62 60 59 61 63 63 63 64 64 65 66 69
21 22 23 25 28 29 28 29 32 32 32 30 28 38 45 40 36 36 32 28 29 31 29 31 34 36 37 36 34 34 35 35 36 36 36 38 39 42 44 46 48 48 46 43 41 43 41 40 42 44 47 48 46 46 48 47 50 51 50 52 50 48 52 56 57 56 53 47 43 46 49 49 48 48 50 51 52 52 53 54 50 49 52 57 60 59 58 58 59 62 65 65 64 64 66 66 67
21 23 24 26 28 30 28 29 31 31 31 31 30 37 43 39 36 37 31 26 30 31 32 34 35 35 34 34 33 32 31 32 34 36 38 43 45 46 47 44 40 43 49 47 45 48 42 38 42 43 42 42 41 42 46 45 48 55 57 59 59 56 55 56 57 61 63 60 53 50 50 50 48 48 49 49 50 52 54 57 57 54 54 57 59 59 58 57 58 59 63 66 67 67 67 68 67
22 22 22 24 27 29 29 30 31 29 29 30 30 33 39 37 34 35 30 29 34 34 33 35 33 34 34 33 32 29 28 31 35 37 39 44 46 47 49 45 40 42 44 40 42 50 47 41 42 40 39 40 41 43 42 37 39 45 48 50 51 50 53 55 54 54 56 58 57 57 58 58 52 44 45 47 47 49 54 59 64 62 59 59 60 60 59 58 58 59 60 63 67 68 68 69 69
20 19 19 20 24 27 29 30 30 28 27 29 30 31 36 36 33 33 32 33 37 34 33 34 33 35 35 32 31 28 27 29 33 37 40 44 44 47 50 49 48 46 47 47 44 45 46 48 49 45 43 43 44 44 40 35 33 33 33 34 33 33 41 47 46 46 48 54 58 58 59 62 57 49 49 51 48 52 57 60 66 67 64 62 61 62 61 59 59 59 59 61 65 68 69 70 71
18 16 16 19 22 25 27 28 27 27 27 29 29 30 33 35 35 36 35 36 38 34 31 33 35 38 37 32 30 27 26 28 32 37 41 43 42 44 49 52 53 47 49 58 56 49 46 51 57 50 41 40 40 39 36 34 28 25 26 28 30 34 40 42 40 39 43 54 56 52 54 58 55 53 55 53 46 49 57 60 64 68 68 65 63 64 63 60 60 61 61 60 62 66 69 69 71
16 16 17 19 22 24 24 26 26 26 28 29 29 28 31 33 36 38 37 38 40 36 33 34 36 37 35 32 29 26 26 27 31 35 39 42 41 40 45 52 54 46 43 47 48 48 46 43 47 44 34 34 36 31 32 39 38 35 32 28 31 37 43 45 43 41 46 55 55 45 47 56 55 52 50 47 46 47 52 59 65 69 68 65 65 67 66 63 62 64 64 60 59 62 66 68 70
16 17 18 21 23 23 24 25 26 25 27 31 29 28 30 33 37 39 38 39 40 37 35 35 35 35 32 30 29 28 27 28 29 31 33 37 38 36 39 47 53 49 43 38 33 36 39 34 32 34 31 29 32 29 31 44 52 51 41 30 28 28 30 32 32 37 43 50 58 52 45 50 52 48 41 39 42 43 44 53 64 68 67 63 62 64 66 65 65 66 64 59 57 59 61 65 69
17 17 19 22 24 26 27 26 26 26 28 31 30 30 31 34 37 38 38 40 41 38 36 36 36 36 33 30 30 30 30 29 29 30 31 32 33 33 34 40 48 50 45 40 35 34 36 35 31 31 31 31 33 35 39 50 54 52 43 31 26 25 23 23 23 28 27 30 48 52 42 43 44 41 39 37 36 37 38 45 55 60 63 62 61 63 64 65 66 67 64 59 56 57 59 63 68
17 18 20 21 23 26 26 24 25 26 28 30 32 32 34 36 38 38 40 42 44 43 38 36 37 37 36 33 32 33 33 32 31 31 31 31 32 32 33 35 41 46 45 43 42 39 37 38 36 33 36 38 42 44 44 48 48 41 34 27 27 28 27 27 26 26 22 19 30 38 36 36 37 40 41 36 31 32 35 40 47 53 58 58 55 58 61 61 64 66 64 61 60 59 58 62 68
17 18 19 19 20 23 22 20 21 24 27 29 32 36 38 38 39 41 43 44 46 45 40 37 36 35 37 36 35 36 35 35 34 33 32 32 30 28 28 30 32 35 40 43 43 41 39 40 38 35 36 38 40 40 37 37 34 29 25 23 26 29 30 31 33 36 34 25 24 33 36 30 29 36 38 36 36 37 37 40 45 49 52 53 51 54 57 56 59 60 60 62 63 62 61 63 68
17 17 17 18 20 21 20 19 20 26 31 29 29 37 41 40 41 42 43 44 46 45 42 40 38 38 38 38 37 38 39 38 37 35 34 30 26 24 24 26 27 27 32 36 37 37 37 38 38 34 33 31 29 29 28 27 24 24 24 25 25 27 28 29 33 41 42 38 40 45 46 43 42 40 37 42 46 43 43 45 48 47 45 46 51 54 54 52 51 49 52 59 62 65 67 67 68
17 17 17 17 18 20 19 20 21 25 29 25 22 30 38 41 43 42 41 44 45 44 44 42 40 41 39 37 36 36 37 38 36 35 33 28 26 26 28 28 27 27 29 30 30 32 33 33 33 30 27 25 24 24 24 24 24 25 25 25 26 25 26 25 28 33 34 39 51 51 47 53 59 54 46 46 45 43 47 52 55 53 47 44 47 51 51 51 51 46 46 55 62 66 69 68 68
17 17 17 16 17 17 19 19 18 17 18 19 21 26 35 42 44 42 41 44 45 44 45 43 41 41 39 37 35 35 35 34 34 34 33 33 32 32 33 32 31 30 29 27 26 27 28 29 28 27 26 25 25 24 25 26 26 27 26 27 28 26 27 24 24 28 26 32 45 44 40 46 54 56 49 41 42 43 44 48 52 54 51 46 45 48 48 48 50 48 46 51 57 60 61 63 64
16 17 16 15 14 15 16 14 14 14 12 16 22 25 34 43 44 44 43 44 46 48 46 44 42 41 40 39 37 36 36 34 33 35 35 35 36 36 35 34 32 30 28 25 24 24 25 25 25 26 27 27 28 27 28 29 28 30 34 35 33 31 30 28 25 26 25 30 39 40 40 43 52 60 53 44 47 48 43 43 45 49 53 54 52 48 45 44 43 44 43 43 46 50 53 58 62
17 16 16 16 14 14 13 11 14 18 18 19 22 24 34 44 45 45 46 45 47 49 46 43 44 43 42 41 40 38 40 38 37 37 38 36 37 38 35 32 30 27 26 25 25 24 24 24 24 24 25 26 26 26 27 28 28 32 37 36 34 34 34 35 33 30 28 29 33 37 42 48 57 66 61 54 54 52 49 46 44 48 53 56 55 47 41 41 40 39 38 37 40 45 48 53 61
17 16 17 16 16 16 16 19 20 22 26 29 25 22 29 41 44 43 42 41 42 45 45 44 44 44 44 43 42 41 41 41 41 41 39 38 39 39 36 33 29 25 25 25 23 23 23 21 22 22 22 22 22 24 24 24 25 28 31 31 33 37 40 42 41 38 38 37 34 35 41 46 52 59 63 62 61 55 49 44 44 46 46 45 44 40 40 43 42 41 38 37 39 42 46 51 60
16 16 16 14 17 20 22 26 25 25 33 36 30 25 28 37 42 39 36 37 41 42 43 43 43 43 43 43 43 43 43 42 42 41 39 37 37 39 37 33 28 25 25 24 22 22 22 22 22 22 22 23 25 26 26 26 27 29 31 31 33 36 39 43 45 46 49 50 45 40 41 46 52 60 65 66 64 58 52 48 45 46 49 49 46 42 42 43 42 43 42 39 41 42 45 51 58
16 16 17 18 21 25 28 30 26 26 34 35 32 32 34 37 39 36 36 40 43 43 41 42 42 43 43 42 43 44 45 43 41 39 38 36 36 39 37 31 27 26 25 24 24 23 23 22 22 23 24 26 28 29 30 31 32 32 33 33 33 35 38 41 45 50 51 51 49 43 41 46 55 62 63 58 54 53 53 51 44 45 50 49 44 41 41 41 45 51 46 42 52 59 56 55 59
15 15 18 22 25 27 30 32 27 27 32 32 31 34 37 41 40 37 38 41 41 41 41 42 42 42 43 43 44 45 44 42 40 39 38 36 37 37 32 28 26 26 26 26 25 24 23 22 21 23 25 27 28 28 29 31 32 32 33 33 34 36 39 40 42 47 50 50 49 46 45 47 52 56 56 51 47 46 45 43 43 51 55 50 45 43 43 46 53 64 63 58 68 76 71 63 62
16 15 18 20 23 25 25 26 25 25 28 30 33 38 42 45 42 37 38 38 38 40 42 43 43 43 45 45 46 46 44 42 40 40 37 35 34 31 28 28 27 26 26 26 25 24 22 22 22 22 24 26 26 26 28 30 31 32 31 32 34 37 39 41 42 45 50 53 53 54 56 59 58 56 53 50 49 48 44 44 50 57 58 57 59 56 53 52 55 66 73 68 68 73 70 68 66
19 18 18 18 21 24 24 25 25 25 26 29 38 46 46 44 40 37 37 38 39 42 44 45 44 45 47 47 47 45 42 41 39 36 34 32 29 27 27 28 27 26 26 25 24 22 22 23 24 23 24 25 25 25 28 30 30 30 31 32 33 35 38 40 42 45 49 54 57 57 58 62 64 59 53 50 51 52 49 50 55 59 59 61 65 65 61 56 56 63 69 66 67 69 67 71 71
24 20 20 19 19 21 21 23 27 29 28 31 43 53 50 46 43 39 38 40 42 44 45 46 47 47 48 47 46 44 42 41 39 35 31 28 26 26 28 28 27 26 25 24 24 23 23 25 26 25 26 24 23 25 27 28 27 28 31 32 33 35 36 38 40 40 41 46 53 57 58 61 64 62 57 54 54 54 55 57 59 61 63 62 64 66 64 59 58 61 64 65 68 68 68 75 74
24 20 21 19 17 20 21 23 28 30 28 30 41 52 52 50 49 44 42 43 44 45 46 47 49 48 48 47 45 43 42 40 37 33 28 26 25 27 28 28 27 25 24 24 24 24 25 26 27 27 27 25 26 26 26 25 25 28 30 31 34 37 38 39 41 41 40 41 45 50 54 57 60 61 59 58 56 55 58 64 67 67 65 59 59 64 67 68 66 63 63 64 64 66 70 75 70
23 20 19 18 17 20 22 24 26 26 26 27 35 45 47 46 47 45 44 45 44 46 47 47 48 48 46 45 43 41 41 39 35 31 28 26 26 27 29 28 26 25 24 24 24 25 26 27 28 28 27 28 29 28 26 25 26 29 31 32 33 36 40 42 43 44 44 44 45 47 49 51 51 52 52 52 54 55 59 67 74 77 71 60 57 61 66 70 71 67 65 66 64 63 65 66 64
23 21 18 18 20 21 23 25 25 24 26 28 33 41 44 43 42 41 42 44 43 44 44 44 46 45 42 41 41 40 40 38 35 32 30 27 27 29 29 27 26 25 25 24 24 25 27 28 30 30 28 28 28 27 27 27 27 30 32 33 33 36 41 44 46 46 45 46 48 50 52 54 53 54 53 52 53 54 58 65 72 75 70 60 57 64 69 71 72 71 69 68 67 62 58 60 63
24 25 23 21 22 22 21 23 24 24 29 32 34 37 40 41 40 38 39 41 40 39 39 41 41 40 38 38 39 40 39 38 37 35 32 30 30 30 27 26 25 24 25 24 25 27 28 28 30 31 28 26 26 27 28 29 30 31 33 34 35 38 41 43 44 46 45 47 49 50 50 52 56 61 61 59 59 59 61 67 73 75 70 63 62 68 72 71 71 73 72 69 68 63 60 60 61
25 27 26 23 24 24 22 24 26 27 30 31 31 31 33 37 39 37 36 37 35 33 33 35 37 36 36 37 38 39 39 39 38 36 33 33 33 31 27 25 24 24 25 26 27 28 29 29 30 30 28 26 26 28 29 31 31 32 33 35 38 41 42 42 43 45 47 49 51 51 49 49 54 62 67 65 65 67 69 72 77 80 77 72 69 69 71 72 71 71 71 69 68 66 67 65 61